When you browse on this site, cookies collect data to enhance your experience and personalize the content and advertising you see.
Visit our Privacy Policy to learn more. By continuing to use the site, you agree to this use of cookies and data.
  • în România
  • Lista ţărilor
  • Pe 7 zile
  • Temperatura apei
  • Meteo pe hartă
  • Widget-uri
  • user-avatar
    Intrare

    Meteo pe oră la Darovaya

    Astăzi, 16 Septembrie, Luni

    Timp Temperatura Precipitaţii Vânt Presiune Umiditate
    00:00 +9°C° 0.5 mm 7 m/s 740 mmHg 88%
    01:00 +9°C° 0.2 mm 7 m/s 739 mmHg 87%
    02:00 +10°C° 0.2 mm 7 m/s 738 mmHg 86%
    03:00 +9°C° 0 mm 7 m/s 738 mmHg 84%
    04:00 +9°C° 0.2 mm 7 m/s 737 mmHg 85%
    05:00 +9°C° 0.2 mm 8 m/s 737 mmHg 86%
    06:00 +9°C° 0.2 mm 8 m/s 736 mmHg 88%
    07:00 +9°C° 0.5 mm 8 m/s 736 mmHg 87%
    08:00 +10°C° 0.5 mm 9 m/s 735 mmHg 87%
    09:00 +10°C° 0.5 mm 9 m/s 735 mmHg 87%
    10:00 +11°C° 0.2 mm 9 m/s 735 mmHg 81%
    11:00 +12°C° 0.2 mm 10 m/s 734 mmHg 75%
    12:00 +13°C° 0.2 mm 10 m/s 734 mmHg 70%
    13:00 +13°C° 0.2 mm 10 m/s 734 mmHg 66%
    14:00 +13°C° 0.2 mm 9 m/s 734 mmHg 63%
    15:00 +15°C° 0.2 mm 9 m/s 734 mmHg 59%
    16:00 +13°C° 0 mm 8 m/s 734 mmHg 63%
    17:00 +12°C° 0 mm 7 m/s 734 mmHg 67%
    18:00 +11°C° 0 mm 6 m/s 734 mmHg 71%
    19:00 +11°C° 0 mm 6 m/s 734 mmHg 73%
    20:00 +10°C° 0 mm 6 m/s 734 mmHg 76%
    21:00 +9°C° 0 mm 6 m/s 735 mmHg 78%
    22:00 +9°C° 0 mm 6 m/s 734 mmHg 80%
    23:00 +9°C° 0 mm 6 m/s 734 mmHg 81%

    Mâine, 17 Septembrie, Marţi

    Timp Temperatura Precipitaţii Vânt Presiune Umiditate
    00:00 +8°C° 0 mm 6 m/s 734 mmHg 82%
    01:00 +8°C° 0 mm 6 m/s 734 mmHg 84%
    02:00 +8°C° 0 mm 6 m/s 734 mmHg 85%
    03:00 +8°C° 0 mm 6 m/s 734 mmHg 86%
    04:00 +8°C° 0 mm 6 m/s 734 mmHg 85%
    05:00 +8°C° 0 mm 6 m/s 734 mmHg 83%
    06:00 +8°C° 0 mm 6 m/s 733 mmHg 81%
    07:00 +8°C° 0 mm 7 m/s 733 mmHg 79%
    08:00 +9°C° 0 mm 7 m/s 734 mmHg 77%
    09:00 +9°C° 0 mm 8 m/s 734 mmHg 74%
    10:00 +10°C° 0.1 mm 8 m/s 734 mmHg 72%
    11:00 +10°C° 0.1 mm 8 m/s 734 mmHg 70%
    12:00 +10°C° 0.1 mm 8 m/s 734 mmHg 68%
    13:00 +11°C° 0.1 mm 8 m/s 734 mmHg 64%
    14:00 +11°C° 0.1 mm 7 m/s 734 mmHg 61%
    15:00 +12°C° 0.1 mm 7 m/s 734 mmHg 57%
    16:00 +11°C° 0 mm 6 m/s 734 mmHg 61%
    17:00 +10°C° 0 mm 5 m/s 734 mmHg 66%
    18:00 +11°C° 0 mm 4 m/s 734 mmHg 70%
    19:00 +10°C° 0 mm 4 m/s 734 mmHg 73%
    20:00 +8°C° 0 mm 4 m/s 734 mmHg 75%
    21:00 +7°C° 0 mm 4 m/s 734 mmHg 78%
    22:00 +6°C° 0 mm 4 m/s 734 mmHg 81%
    23:00 +6°C° 0 mm 4 m/s 734 mmHg 83%

    Poimâine, 18 Septembrie, Miercuri

    Timp Temperatura Precipitaţii Vânt Presiune Umiditate
    00:00 +6°C° 0 mm 4 m/s 734 mmHg 86%
    01:00 +5°C° 0 mm 4 m/s 734 mmHg 88%
    02:00 +5°C° 0 mm 3 m/s 734 mmHg 90%
    03:00 +5°C° 0 mm 3 m/s 734 mmHg 92%
    04:00 +5°C° 0 mm 3 m/s 734 mmHg 92%
    05:00 +5°C° 0 mm 3 m/s 734 mmHg 92%
    06:00 +5°C° 0 mm 3 m/s 734 mmHg 92%
    07:00 +7°C° 0 mm 3 m/s 733 mmHg 87%
    08:00 +8°C° 0 mm 3 m/s 733 mmHg 83%
    09:00 +8°C° 0 mm 4 m/s 733 mmHg 79%
    10:00 +10°C° 0.2 mm 4 m/s 733 mmHg 75%
    11:00 +11°C° 0.2 mm 4 m/s 733 mmHg 71%
    12:00 +12°C° 0.2 mm 4 m/s 733 mmHg 67%
    13:00 +12°C° 0.6 mm 4 m/s 733 mmHg 68%
    14:00 +12°C° 0.6 mm 3 m/s 733 mmHg 69%
    15:00 +12°C° 0.6 mm 3 m/s 732 mmHg 69%
    16:00 +11°C° 0.8 mm 3 m/s 732 mmHg 74%
    17:00 +10°C° 0.8 mm 3 m/s 732 mmHg 78%
    18:00 +10°C° 0.8 mm 3 m/s 732 mmHg 83%
    19:00 +9°C° 0.3 mm 3 m/s 732 mmHg 86%
    20:00 +8°C° 0.3 mm 3 m/s 732 mmHg 89%
    21:00 +7°C° 0.3 mm 3 m/s 732 mmHg 92%
    22:00 +7°C° 0 mm 3 m/s 733 mmHg 92%
    23:00 +5°C° 0 mm 3 m/s 733 mmHg 93%

    19 Septembrie, Joi

    Timp Temperatura Precipitaţii Vânt Presiune Umiditate
    00:00 +5°C° 0 mm 4 m/s 733 mmHg 94%
    01:00 +5°C° 0 mm 4 m/s 734 mmHg 94%
    02:00 +5°C° 0 mm 4 m/s 734 mmHg 94%
    03:00 +4°C° 0 mm 4 m/s 735 mmHg 94%
    04:00 +4°C° 0 mm 4 m/s 736 mmHg 95%
    05:00 +4°C° 0 mm 4 m/s 736 mmHg 95%
    06:00 +4°C° 0 mm 4 m/s 737 mmHg 96%
    07:00 +4°C° 0 mm 4 m/s 737 mmHg 94%
    08:00 +5°C° 0 mm 4 m/s 738 mmHg 92%
    09:00 +6°C° 0 mm 4 m/s 739 mmHg 90%
    10:00 +6°C° 0.1 mm 4 m/s 739 mmHg 85%
    11:00 +7°C° 0.1 mm 4 m/s 740 mmHg 81%
    12:00 +7°C° 0.1 mm 5 m/s 740 mmHg 77%
    13:00 +8°C° 0.1 mm 5 m/s 740 mmHg 73%
    14:00 +8°C° 0.1 mm 5 m/s 741 mmHg 69%
    15:00 +9°C° 0.1 mm 5 m/s 741 mmHg 65%
    16:00 +8°C° 0.1 mm 4 m/s 741 mmHg 69%
    17:00 +8°C° 0.1 mm 3 m/s 742 mmHg 72%
    18:00 +7°C° 0.1 mm 2 m/s 742 mmHg 76%
    19:00 +6°C° 0 mm 2 m/s 742 mmHg 79%
    20:00 +5°C° 0 mm 2 m/s 743 mmHg 83%
    21:00 +4°C° 0 mm 2 m/s 743 mmHg 86%
    22:00 +4°C° 0 mm 2 m/s 743 mmHg 86%
    23:00 +3°C° 0 mm 2 m/s 744 mmHg 85%

    20 Septembrie, Vineri

    Timp Temperatura Precipitaţii Vânt Presiune Umiditate
    00:00 +3°C° 0 mm 2 m/s 744 mmHg 85%
    01:00 +3°C° 0 mm 2 m/s 744 mmHg 84%
    02:00 +3°C° 0 mm 2 m/s 744 mmHg 83%
    03:00 +2°C° 0 mm 2 m/s 744 mmHg 82%
    04:00 +2°C° 0 mm 2 m/s 744 mmHg 84%
    05:00 +2°C° 0 mm 2 m/s 744 mmHg 85%
    06:00 +1°C° 0 mm 2 m/s 744 mmHg 87%
    07:00 +3°C° 0 mm 2 m/s 744 mmHg 81%
    08:00 +4°C° 0 mm 2 m/s 744 mmHg 75%
    09:00 +6°C° 0 mm 2 m/s 745 mmHg 69%
    10:00 +7°C° 0.1 mm 2 m/s 745 mmHg 65%
    11:00 +8°C° 0.1 mm 3 m/s 745 mmHg 62%
    12:00 +9°C° 0.1 mm 3 m/s 745 mmHg 59%
    13:00 +8°C° 0.4 mm 3 m/s 745 mmHg 62%
    14:00 +7°C° 0.4 mm 4 m/s 745 mmHg 65%
    15:00 +7°C° 0.4 mm 4 m/s 745 mmHg 68%
    16:00 +7°C° 0.1 mm 3 m/s 745 mmHg 70%
    17:00 +7°C° 0.1 mm 2 m/s 745 mmHg 73%
    18:00 +6°C° 0.1 mm 2 m/s 745 mmHg 75%
    19:00 +5°C° 0 mm 2 m/s 745 mmHg 77%
    20:00 +4°C° 0 mm 2 m/s 745 mmHg 79%
    21:00 +3°C° 0 mm 2 m/s 746 mmHg 81%
    22:00 +2°C° 0 mm 2 m/s 746 mmHg 83%
    23:00 +2°C° 0 mm 2 m/s 746 mmHg 86%

    21 Septembrie, Sâmbătă

    Timp Temperatura Precipitaţii Vânt Presiune Umiditate
    00:00 0°C° 0 mm 3 m/s 746 mmHg 88%
    01:00 0°C° 0 mm 3 m/s 746 mmHg 89%
    02:00 +1°C° 0 mm 2 m/s 746 mmHg 90%
    03:00 -1°C° 0 mm 2 m/s 746 mmHg 91%
    04:00 -1°C° 0 mm 2 m/s 747 mmHg 91%
    05:00 -1°C° 0 mm 2 m/s 747 mmHg 91%
    06:00 -1°C° 0 mm 2 m/s 747 mmHg 90%
    07:00 +1°C° 0 mm 2 m/s 747 mmHg 84%
    08:00 +2°C° 0 mm 3 m/s 748 mmHg 79%
    09:00 +3°C° 0 mm 3 m/s 748 mmHg 73%
    10:00 +4°C° 0 mm 3 m/s 748 mmHg 67%
    11:00 +7°C° 0 mm 3 m/s 748 mmHg 61%
    12:00 +8°C° 0 mm 3 m/s 748 mmHg 55%
    13:00 +7°C° 0.2 mm 4 m/s 748 mmHg 55%
    14:00 +7°C° 0.2 mm 4 m/s 748 mmHg 55%
    15:00 +7°C° 0.2 mm 4 m/s 748 mmHg 56%
    16:00 +7°C° 0.1 mm 3 m/s 748 mmHg 60%
    17:00 +5°C° 0.1 mm 3 m/s 748 mmHg 64%
    18:00 +5°C° 0.1 mm 2 m/s 748 mmHg 69%
    19:00 +4°C° 0 mm 3 m/s 749 mmHg 71%
    20:00 +3°C° 0 mm 3 m/s 749 mmHg 73%
    21:00 +2°C° 0 mm 3 m/s 749 mmHg 75%
    22:00 +1°C° 0 mm 3 m/s 749 mmHg 76%
    23:00 +2°C° 0 mm 2 m/s 750 mmHg 77%
    Arată mai mult